Location: Red Bud (historical)
(37.7759°N, 88.4053°W)
Time: 00:08:00
(UTC+00:00)

Cosmos 1812 Rocket - Pass Details

Date: 29 October 2020
Orbit: 605 x 633 km, 82.5° (Epoch: 28 November)

Event Time Altitude Azimuth Distance (km) Brightness Sun altitude
Rises 23:47:04 0° 160° (SSE) 2,891 6.9 -10.3°
Reaches altitude 10° 23:49:32 10° 148° (SSE) 1,984 5.9 -10.8°
Maximum altitude 23:53:16 28° 90° (E) 1,173 4.4 -11.5°
Drops below altitude 10° 23:56:59 10° 31° (NNE) 1,982 5.8 -12.3°
Sets 23:59:27 0° 20° (NNE) 2,887 6.7 -12.8°
